This demonstration page uses our WeatherBlox Daily Observations layout. Learn more.

Left ArrowRight Arrow

Hourly Observations for October 9, 2015

Temp ( °F °C ) Dew Point ( °F °C ) Humidity (%) Winds ( mph kmh ) Pressure ( in mb ) Visibility ( mi km ) Precip ( " mm )
12:53 am 00:53 Clear 63 17.2 49 9.4 60 60 WNW 3 6 30.04 1017 10 16 0.00 0.00
1:53 am 01:53 Clear 63 17.2 49 9.4 60 60 Calm 30.03 1017 10 16 0.00 0.00
2:53 am 02:53 Clear 62 16.7 49 9.4 62 62 undefined N/A 30.04 1017 10 16 0.00 0.00
3:53 am 03:53 Clear 59 15 49 9.4 69 69 Calm 30.04 1017 10 16 0.00 0.00
4:53 am 04:53 Clear 58 14.4 48 8.9 70 70 Calm 30.05 1018 10 16 0.00 0.00
5:53 am 05:53 Clear 57 13.9 48 8.9 72 72 NW 5 7 30.06 1018 10 16 0.00 0.00
6:53 am 06:53 Clear 57 13.9 49 9.4 74 74 W 3 6 30.06 1018 10 16 0.00 0.00
7:53 am 07:53 Sunny 56 13.3 48 8.9 75 75 Calm 30.06 1018 10 16 0.00 0.00
8:53 am 08:53 Sunny 66 18.9 50 10 56 56 N 3 6 30.06 1018 10 16 0.00 0.00
9:53 am 09:53 Sunny 73 22.8 48 8.9 41 41 N 3 6 30.07 1018 10 16 0.00 0.00
10:53 am 10:53 Sunny 76 24.4 49 9.4 39 39 Calm 30.06 1018 10 16 0.00 0.00
11:53 am 11:53 Sunny 83 28.3 47 8.3 28 28 VRB 3 6 30.04 1017 10 16 0.00 0.00
12:53 pm 12:53 Sunny 86 30 50 10 29 29 Calm 30.02 1017 10 16 0.00 0.00
1:53 pm 13:53 Sunny 87 30.6 49 9.4 27 27 VRB 3 6 29.99 1016 10 16 0.00 0.00
2:53 pm 14:53 Sunny 89 31.7 47 8.3 23 23 S 6 9 29.97 1015 10 16 0.00 0.00
3:53 pm 15:53 Sunny 90 32.2 46 7.8 22 22 Calm 29.96 1015 10 16 0.00 0.00
4:53 pm 16:53 Sunny 91 32.8 42 5.6 18 18 WSW 6 9 29.94 1014 10 16 0.00 0.00
5:53 pm 17:53 Sunny 90 32.2 43 6.1 19 19 SSE 6 9 29.93 1014 10 16 0.00 0.00
6:53 pm 18:53 Clear 84 28.9 45 7.2 25 25 SE 5 7 29.93 1014 10 16 0.00 0.00
7:53 pm 19:53 Clear 80 26.7 47 8.3 31 31 Calm 29.93 1014 10 16 0.00 0.00
8:53 pm 20:53 Clear 74 23.3 46 7.8 37 37 N 3 6 29.95 1014 10 16 0.00 0.00
9:53 pm 21:53 Clear 70 21.1 46 7.8 42 42 Calm 29.96 1014 10 16 0.00 0.00
10:53 pm 22:53 Clear 67 19.4 47 8.3 49 49 Calm 29.96 1015 10 16 0.00 0.00
11:53 pm 23:53 Clear 65 18.3 46 7.8 51 51 N 3 6 29.96 1015 10 16 0.00 0.00

Powered by AerisWeather